#timestamp,LO_Frequency,Hit,StdDev 
1506992415.3,286046993.3,N
1506992435.1,286046997.7,N
1506992436.0,286046997.7,N
1506992455.8,286047001.2,N
1506992475.7,286047002.1,N
1506992495.5,286046998.6,N
1506992515.3,286046996.9,N
1506992535.1,286046999.1,N
1506992555.9,286046998.9,N
1506992575.7,286047000.5,N
1506992595.5,286046999.3,N
1506992615.4,286046996.2,N
1506992635.2,286046992.7,N
1506992655.0,286046995.8,N
1506992655.9,286046995.8,N
1506992675.8,286046995.3,N
1506992695.6,286046994.8,N
1506992715.4,286046995.9,N
1506992735.3,286046993.2,N
1506992755.1,286046992.6,N
1506992756.0,286046992.6,N
1506992775.8,286046991.1,N
1506992795.7,286046988.5,Y
1506992815.5,286046990.1,P
1506992835.3,286046993.1,N
1506992855.2,286046993.2,N
1506992875.9,286046991.3,Y
1506992895.7,286046994.6,P
1506992915.6,286046992.1,P
1506992935.4,286046994.0,P
1506992955.2,286046995.9,Y
1506992975.1,286047000.1,P
1506992976.0,286047000.1,N
1506992995.8,286047000.2,N
1506993015.6,286046998.5,N
1506993035.5,286046999.7,N
1506993055.3,286047000.4,N
1506993075.1,286046999.2,N
1506993095.8,286046999.3,N
1506993115.7,286046999.5,N
1506993135.5,286046997.2,N
1506993155.3,286046997.4,N
1506993175.2,286046998.5,N
1506993195.9,286046999.1,N
1506993215.7,286046998.2,N
1506993235.6,286046998.7,N
1506993255.4,286047000.7,N
1506993275.2,286046998.2,N
1506993295.1,286047000.4,N
1506993296.0,286047000.4,N
1506993315.8,286046998.2,N
1506993335.6,286046999.0,N
1506993355.5,286046999.3,N
1506993375.3,286046996.6,N
1506993395.1,286046998.8,N
1506993415.8,286046996.5,N
1506993435.7,286046996.7,N
1506993455.5,286047000.6,N
1506993475.3,286046998.2,N
1506993495.2,286047002.5,N
1506993515.9,286047003.9,N
1506993535.7,286047003.5,N
1506993555.6,286047003.3,N
1506993575.4,286047004.0,N
1506993595.2,286047000.2,N
1506993615.1,286046998.7,N
1506993616.0,286046998.7,N
1506993635.8,286046999.9,N
1506993655.6,286046998.5,N
1506993675.4,286046999.4,N
1506993695.3,286046999.5,N
1506993715.1,286046994.9,N
1506993735.8,286046999.6,N
1506993755.7,286046996.9,N
1506993775.5,286046998.7,N
1506993795.3,286046998.3,N
1506993815.2,286046996.9,N
1506993835.9,286046996.9,N
1506993855.7,286046997.0,N
1506993875.6,286046997.5,N
1506993895.4,286046987.8,Y
1506993915.2,286046994.8,P
1506993935.1,286046996.8,N
1506993936.0,286046996.8,N
1506993955.8,286046998.5,N
1506993975.6,286047004.3,N
1506993995.5,286047003.0,N
1506994015.3,286047006.8,N
1506994035.1,286047013.7,Y
1506994055.9,286047012.4,P
1506994075.7,286047012.1,N
1506994095.5,286047006.3,N
1506994115.4,286047004.8,N
1506994135.2,286047004.5,N
1506994155.0,286047010.7,N
1506994155.9,286047010.7,N
1506994175.8,286047008.4,N
1506994195.6,286047006.8,N
1506994215.4,286047004.5,N
1506994235.2,286047008.8,N
1506994255.1,286047012.0,Y
1506994256.0,286047012.0,P
1506994275.8,286047003.4,N
1506994295.6,286047000.0,N
1506994315.5,286047004.4,N
1506994335.3,286047004.8,N
1506994355.1,286047005.1,N
1506994375.9,286047001.4,N
1506994395.7,286047006.6,N
1506994415.5,286047006.8,N
1506994435.4,286047007.9,N
1506994455.2,286047012.4,Y
1506994475.0,286047004.5,P
1506994475.9,286047004.5,P
1506994495.8,286047004.6,P
1506994515.6,286047007.5,Y
1506994535.4,286047002.5,P
1506994555.3,286047001.4,N
1506994575.1,286047003.3,N
1506994595.8,286047002.2,N
1506994615.7,286046999.9,N
1506994635.5,286046998.9,N
1506994655.3,286046995.0,N
1506994675.2,286046993.8,N
1506994695.9,286046995.1,N
1506994715.7,286046995.2,N
1506994735.6,286046997.6,N
1506994755.4,286046993.9,N
1506994775.2,286046993.0,N
1506994795.0,286046988.9,N
1506994795.9,286046988.9,N
1506994815.8,286046989.3,N
1506994835.6,286046987.0,N
1506994855.4,286046987.5,N
1506994875.3,286046989.9,N
1506994895.1,286046987.9,N
1506994915.8,286046986.6,N
1506994935.7,286046985.0,N
1506994955.5,286046982.3,N
1506994975.3,286046980.6,Y
1506994995.2,286046989.6,P
1506995015.9,286046989.5,P
1506995035.7,286046989.4,P
1506995055.6,286046988.7,Y
1506995075.4,286046998.1,P
1506995095.2,286046999.2,N
1506995115.1,286046994.9,N
1506995116.0,286046994.9,N
1506995135.8,286046997.8,N
1506995155.6,286046997.0,N
1506995175.5,286046999.5,N
1506995195.3,286046995.0,N
1506995215.1,286046996.1,N
1506995235.8,286046995.8,N
1506995255.7,286046995.2,N
1506995275.5,286046996.4,N
1506995295.3,286046995.2,N
1506995315.2,286046995.2,N
1506995335.9,286046997.3,N
1506995355.7,286046995.3,N
1506995375.6,286046997.8,N
1506995395.4,286046996.7,N
1506995415.2,286047000.8,N
1506995435.1,286047001.2,N
1506995436.0,286047001.2,N
1506995455.8,286046998.3,N
1506995475.6,286046999.4,N
1506995495.4,286046999.6,N
1506995515.3,286046997.5,N
1506995535.1,286046996.8,N
1506995555.8,286046996.1,N
1506995575.7,286046997.9,N
1506995595.5,286046995.8,N
1506995615.3,286046996.4,N
1506995635.2,286046996.0,N
1506995655.9,286046996.1,N
1506995675.7,286046996.1,N
1506995695.6,286046995.5,N
1506995715.4,286046991.9,Y
1506995735.2,286046998.4,P
1506995755.1,286046999.0,N
1506995756.0,286046999.0,N
1506995775.8,286046998.7,N
1506995795.6,286046999.0,N
1506995815.5,286046998.4,N
1506995835.3,286046999.2,N
1506995855.1,286046998.3,N
1506995875.9,286046999.4,N
1506995895.7,286046999.0,N
1506995915.5,286046997.4,Y
1506995935.4,286046995.1,P
1506995955.2,286046993.6,P
1506995975.0,286047000.1,N
1506995975.9,286047000.1,N
1506995995.8,286047007.6,N
